This demonstration page uses our WeatherBlox Daily Observations layout. Learn more.

Left ArrowRight Arrow

30.21309, -93.2044

Hourly Observations for January 1, 2022

Temp ( °F °C ) Dew Point ( °F °C ) Humidity (%) Winds ( mph kmh ) Pressure ( in mb ) Visibility ( mi km ) Precip ( " mm )
12:15 am 00:15 Cloudy 74 23.6 70 21.3 87 87 SSW 15 24 29.81 1009 10 16 0.00 0.00
12:35 am 00:35 Cloudy 74 23.6 70 21.3 87 87 S 15 24 29.80 1009 10 16 0.00 0.00
12:55 am 00:55 Cloudy 74 23.6 71 21.4 88 88 S 20 31 29.80 1009 10 16 0.00 0.00
1:15 am 01:15 Cloudy 75 23.7 71 21.4 87 87 S 16 26 29.80 1009 10 16 0.00 0.00
1:35 am 01:35 Cloudy 74 23.6 71 21.4 88 88 S 20 31 29.79 1009 10 16 0.00 0.00
1:55 am 01:55 Cloudy 74 23.4 70 21.3 88 88 S 16 26 29.78 1008 10 16 0.00 0.00
2:15 am 02:15 Cloudy 74 23.4 70 21.3 88 88 S 17 28 29.78 1008 10 16 0.00 0.00
2:35 am 02:35 Cloudy 74 23.3 70 21.3 89 89 S 18 30 29.77 1008 10 16 0.00 0.00
2:55 am 02:55 Cloudy 74 23.2 70 21.3 89 89 S 16 26 29.77 1008 10 16 0.00 0.00
3:15 am 03:15 Cloudy 74 23.2 70 21.2 89 89 S 17 28 29.77 1008 10 16 0.00 0.00
3:35 am 03:35 Cloudy 74 23.3 70 21.3 89 89 S 17 28 29.77 1008 10 16 0.00 0.00
3:55 am 03:55 Cloudy 74 23.1 70 21.2 89 89 S 18 30 29.76 1008 10 16 0.00 0.00
4:15 am 04:15 Cloudy 74 23.2 70 21.2 89 89 S 18 30 29.75 1007 10 16 0.00 0.00
4:35 am 04:35 Cloudy 74 23.1 70 21.2 89 89 S 18 30 29.74 1007 10 16 0.00 0.00
4:55 am 04:55 Cloudy 73 22.9 70 21 89 89 S 16 26 29.74 1007 10 16 0.00 0.00
5:15 am 05:15 Cloudy 73 22.9 70 21.2 90 90 S 18 30 29.74 1007 10 16 0.00 0.00
5:35 am 05:35 Mostly Cloudy 73 22.8 70 21 90 90 S 18 30 29.74 1007 10 16 0.00 0.00
6:00 am 06:00 Mostly Cloudy 73 23 70 21 89 89 S 18 30 29.74 1007 10 16 0.00 0.00
6:47 am 06:47 Mostly Cloudy 73 23 70 21 89 89 S 16 26 29.74 1007 10 16 0.00 0.00
7:50 am 07:50 Cloudy 73 23 72 22 94 94 SSW 15 24 29.77 1008 10 16 0.00 0.00
8:55 am 08:55 Cloudy 75 24 72 22 89 89 SSW 16 26 29.78 1008 10 16 0.00 0.00
9:53 am 09:53 Cloudy 79 26 72 22 79 79 S 21 33 29.80 1009 10 16 0.00 0.00
10:47 am 10:47 Cloudy 79 26 72 22 79 79 SSW 22 35 29.80 1009 10 16 0.00 0.00
11:52 am 11:52 Mostly Cloudy 81 27 72 22 74 74 SSW 24 39 29.78 1008 10 16 0.00 0.00
12:49 pm 12:49 Mostly Cloudy 79 26 72 22 79 79 SSW 21 33 29.74 1007 10 16 0.00 0.00
1:55 pm 13:55 Mostly Cloudy 79 26 72 22 79 79 SSW 23 37 29.71 1006 10 16 0.00 0.00
2:45 pm 14:45 Mostly Cloudy 79 26 72 22 79 79 SSW 23 37 29.70 1006 10 16 0.00 0.00
3:45 pm 15:45 Mostly Cloudy with Light Rain 75 24 72 22 89 89 SSW 17 28 29.70 1006 6 10 0.00 0.00
4:45 pm 16:45 Mostly Cloudy with Mist and Fog 75 24 72 22 89 89 SSW 15 24 29.70 1006 4 6 0.00 0.00
5:45 pm 17:45 Mostly Cloudy 75 24 72 22 89 89 SSW 10 17 29.71 1006 7 11 0.00 0.00
6:45 pm 18:45 Cloudy 75 24 72 22 89 89 SW 12 19 29.72 1006 7 11 0.00 0.00
7:45 pm 19:45 Cloudy 73 23 72 22 94 94 SSW 10 17 29.73 1007 7 11 0.00 0.00
8:45 pm 20:45 Cloudy 73 23 72 22 94 94 SSW 10 17 29.75 1007 7 11 0.00 0.00
9:45 pm 21:45 Cloudy 73 23 72 22 94 94 SSW 10 17 29.77 1008 7 11 0.00 0.00
10:15 pm 22:15 Cloudy with Mist and Fog 73 22.8 71 21.5 92 92 SSW 8 13 29.77 1008 4 6 0.00 0.00
10:35 pm 22:35 Cloudy with Mist and Fog 74 23.1 71 21.5 91 91 SW 9 15 29.78 1008 5 8 0.00 0.00
10:55 pm 22:55 Cloudy with Mist and Fog 74 23.1 70 21.1 89 89 SW 13 20 29.78 1008 5 8 0.00 0.00
11:15 pm 23:15 Cloudy with Mist and Fog 74 23.1 70 21.1 89 89 SW 13 20 29.78 1008 5 8 0.00 0.00
11:35 pm 23:35 Cloudy with Mist and Fog 74 23.1 70 21.2 89 89 WSW 8 13 29.79 1009 5 8 0.00 0.00
11:55 pm 23:55 Cloudy with Mist and Fog 74 23.1 70 21.2 89 89 W 7 11 29.79 1009 5 8 0.00 0.00

Powered by AerisWeather